Weaverville, CA

2:27 PM PST on February 17, 2018 (GMT -0800)
Weaverville

Weather History for KO54 - March, 2013

Change the Weather History Date:

Saturday, March 9, 2013

  Actual Average (KRDD) Record (KRDD)
Temperature  
Mean Temperature 44 °F -  
Max Temperature 62 °F 62 °F 87 °F (2015)
Min Temperature 26 °F 40 °F 32 °F (1990)
Degree Days  
Heating Degree Days 21    
Moisture  
Dew Point 29 °F    
Average Humidity 73    
Maximum Humidity 100    
Minimum Humidity 27    
Precipitation  
Precipitation 0.00 in - - ()
Sea Level Pressure  
Sea Level Pressure 30.30 in    
Wind  
Wind Speed 1 mph (NW)    
Max Wind Speed 7 mph    
Max Gust Speed -    
Visibility 9 miles    
Events      
Averages and records for this station are not official NWS values.
T = Trace of Precipitation, MM = Missing Value Source: NWS Daily Summary

Daily Weather History Graph

Daily Weather History Graph

Search for Another Location

Airport or City:

Trip Planner

Search our weather history database for the weather conditions in past years. The results will help you decide how hot, cold, wet, or windy it might be!

Date:

Astronomy

Mar. 09, 2013 Rise Set
Actual Time 6:32 AM PST 6:12 PM PST
Civil Twilight 6:05 AM PST 6:39 PM PST
Nautical Twilight 5:33 AM PST 7:11 PM PST
Astronomical Twilight 5:01 AM PST 7:43 PM PST
Moon 5:00 AM PST (3/9) 4:20 PM PST (3/9)
Length of Visible Light 12h 34m
Length of Day
11h 39m
Waning Crescent, 5% of the Moon is Illuminated
Mar 9
Waning Crescent
Mar 11
New
Mar 19
First Quarter
Mar 27
Full
Apr 2
Last Quarter

Hourly Weather History & Observations

Time (PST) Temp. Windchill Dew Point Humidity Pressure Visibility Wind Dir Wind Speed Gust Speed Precip Events Conditions
12:15 AM 30.2 °F - 28.4 °F 93% 30.11 in 10.0 mi Calm Calm - N/A   Clear
12:35 AM 28.4 °F - 28.4 °F 100% 30.11 in 10.0 mi Calm Calm - N/A   Clear
12:55 AM 28.4 °F - 28.4 °F 100% 30.12 in 10.0 mi Calm Calm - N/A   Clear
1:15 AM 28.4 °F - 28.4 °F 100% 30.13 in 9.0 mi Calm Calm - N/A   Clear
1:35 AM 28.4 °F - 26.6 °F 93% 30.14 in 10.0 mi Calm Calm - N/A   Clear
1:55 AM 28.4 °F 24.6 °F 26.6 °F 93% 30.15 in 10.0 mi North 3.5 mph - N/A   Clear
2:15 AM 28.4 °F - 26.6 °F 93% 30.15 in 9.0 mi Calm Calm - N/A   Clear
2:35 AM 28.4 °F - 26.6 °F 93% 30.16 in 10.0 mi Calm Calm - N/A   Clear
2:55 AM 28.4 °F - 26.6 °F 93% 30.17 in 10.0 mi Calm Calm - N/A   Clear
3:15 AM 26.6 °F - 26.6 °F 100% 30.17 in 10.0 mi Calm Calm - N/A   Clear
3:35 AM 28.4 °F - 26.6 °F 93% 30.18 in 10.0 mi Calm Calm - N/A   Clear
3:55 AM 26.6 °F - 26.6 °F 100% 30.19 in 10.0 mi Calm Calm - N/A   Clear
4:15 AM 26.6 °F - 24.8 °F 93% 30.20 in 10.0 mi Calm Calm - N/A   Clear
4:35 AM 26.6 °F - 24.8 °F 93% 30.21 in 10.0 mi Calm Calm - N/A   Scattered Clouds
4:55 AM 28.4 °F - 26.6 °F 93% 30.22 in 10.0 mi Calm Calm - N/A   Overcast
5:15 AM 28.4 °F - 28.4 °F 100% 30.24 in 0.5 mi Calm Calm - N/A   Overcast
5:35 AM 28.4 °F - 28.4 °F 100% 30.26 in 1.0 mi Calm Calm - N/A   Overcast
5:55 AM 30.2 °F - 28.4 °F 93% 30.27 in 0.5 mi Calm Calm - N/A   Overcast
6:15 AM 30.2 °F - 28.4 °F 93% 30.28 in 10.0 mi Calm Calm - N/A   Overcast
6:35 AM 30.2 °F - 28.4 °F 93% 30.29 in 6.0 mi Calm Calm - N/A   Overcast
6:55 AM 30.2 °F - 28.4 °F 93% 30.30 in 0.2 mi Calm Calm - N/A   Overcast
7:15 AM 32.0 °F 28.7 °F 30.2 °F 93% 30.30 in 0.8 mi North 3.5 mph - N/A   Overcast
7:35 AM 32.0 °F - 30.2 °F 93% 30.31 in 1.2 mi Calm Calm - N/A   Overcast
7:55 AM 32.0 °F - 30.2 °F 93% 30.33 in 4.0 mi Calm Calm - N/A   Overcast
8:15 AM 32.0 °F - 30.2 °F 93% 30.33 in 6.0 mi Calm Calm - N/A   Overcast
8:35 AM 32.0 °F - 30.2 °F 93% 30.34 in 6.0 mi Calm Calm - N/A   Overcast
8:55 AM 32.0 °F - 30.2 °F 93% 30.35 in 10.0 mi Calm Calm - N/A   Overcast
9:15 AM 32.0 °F - 32.0 °F 100% 30.36 in 10.0 mi Calm Calm - N/A   Overcast
9:35 AM 32.0 °F - 32.0 °F 100% 30.36 in 10.0 mi Calm Calm - N/A   Overcast
9:55 AM 32.0 °F - 32.0 °F 100% 30.36 in 10.0 mi Calm Calm - N/A   Overcast
10:15 AM 37.4 °F - 32.0 °F 81% 30.35 in 10.0 mi Calm Calm - N/A   Scattered Clouds
10:35 AM 39.2 °F - 32.0 °F 75% 30.35 in 10.0 mi Calm Calm - N/A   Clear
10:55 AM 41.0 °F 38.0 °F 32.0 °F 70% 30.35 in 10.0 mi SW 4.6 mph - N/A   Clear
11:15 AM 44.6 °F - 32.0 °F 61% 30.34 in 10.0 mi Calm Calm - N/A   Clear
11:35 AM 46.4 °F - 30.2 °F 53% 30.34 in 10.0 mi Calm Calm - N/A   Clear
11:55 AM 48.2 °F - 28.4 °F 46% 30.34 in 10.0 mi Calm Calm - N/A   Clear
12:15 PM 51.8 °F - 28.4 °F 41% 30.34 in 10.0 mi Calm Calm - N/A   Clear
12:35 PM 53.6 °F - 28.4 °F 38% 30.33 in 10.0 mi Calm Calm - N/A   Clear
12:55 PM 55.4 °F - 28.4 °F 36% 30.32 in 10.0 mi WSW 4.6 mph - N/A   Clear
1:15 PM 55.4 °F - 28.4 °F 36% 30.32 in 10.0 mi Calm Calm - N/A   Clear
1:35 PM 57.2 °F - 24.8 °F 29% 30.31 in 10.0 mi South 6.9 mph - N/A   Clear
1:55 PM 57.2 °F - 24.8 °F 29% 30.31 in 10.0 mi WSW 6.9 mph - N/A   Clear
2:15 PM 57.2 °F - 28.4 °F 33% 30.30 in 10.0 mi South 6.9 mph - N/A   Clear
2:35 PM 59.0 °F - 28.4 °F 31% 30.30 in 10.0 mi SSW 5.8 mph - N/A   Clear
2:55 PM 59.0 °F - 26.6 °F 29% 30.30 in 10.0 mi Calm Calm - N/A   Clear
3:15 PM 59.0 °F - 26.6 °F 29% 30.29 in 10.0 mi NNE 4.6 mph - N/A   Clear
3:35 PM 62.6 °F - 28.4 °F 27% 30.30 in 10.0 mi Calm Calm - N/A   Clear
3:55 PM 60.8 °F - 26.6 °F 27% 30.30 in 10.0 mi SW 5.8 mph - N/A   Clear
4:15 PM 60.8 °F - 26.6 °F 27% 30.30 in 10.0 mi WSW 5.8 mph - N/A   Clear
4:35 PM 60.8 °F - 26.6 °F 27% 30.30 in 10.0 mi Calm Calm - N/A   Clear
4:55 PM 59.0 °F - 28.4 °F 31% 30.30 in 10.0 mi WSW 4.6 mph - N/A   Clear
5:15 PM 59.0 °F - 32.0 °F 36% 30.31 in 10.0 mi WSW 3.5 mph - N/A   Clear
5:35 PM 57.2 °F - 32.0 °F 38% 30.32 in 10.0 mi NNE 5.8 mph - N/A   Clear
5:55 PM 53.6 °F - 32.0 °F 44% 30.32 in 10.0 mi North 4.6 mph - N/A   Clear
6:15 PM 50.0 °F - 32.0 °F 50% 30.33 in 10.0 mi NNE 3.5 mph - N/A   Clear
6:35 PM 48.2 °F - 32.0 °F 54% 30.34 in 10.0 mi North 5.8 mph - N/A   Clear
6:55 PM 46.4 °F - 33.8 °F 62% 30.34 in 10.0 mi Calm Calm - N/A   Clear
7:15 PM 42.8 °F - 33.8 °F 70% 30.34 in 10.0 mi Calm Calm - N/A   Clear
7:35 PM 41.0 °F - 33.8 °F 76% 30.35 in 10.0 mi Calm Calm - N/A   Clear
7:55 PM 39.2 °F - 33.8 °F 81% 30.36 in 10.0 mi Calm Calm - N/A   Clear
8:15 PM 39.2 °F - 32.0 °F 75% 30.37 in 10.0 mi Calm Calm - N/A   Clear
8:35 PM 37.4 °F - 32.0 °F 81% 30.38 in 10.0 mi Calm Calm - N/A   Clear
8:55 PM 35.6 °F - 32.0 °F 87% 30.39 in 10.0 mi Calm Calm - N/A   Clear
9:15 PM 37.4 °F 34.9 °F 32.0 °F 81% 30.40 in 9.0 mi NE 3.5 mph - N/A   Clear
9:35 PM 35.6 °F 32.8 °F 30.2 °F 81% 30.40 in 9.0 mi NNE 3.5 mph - N/A   Clear
9:55 PM 35.6 °F - 30.2 °F 81% 30.41 in 10.0 mi Calm Calm - N/A   Clear
10:15 PM 32.0 °F - 30.2 °F 93% 30.41 in 10.0 mi Calm Calm - N/A   Clear
10:35 PM 32.0 °F - 28.4 °F 87% 30.42 in 9.0 mi Calm Calm - N/A   Clear
10:55 PM 32.0 °F - 28.4 °F 87% 30.42 in 8.0 mi Calm Calm - N/A   Clear
11:15 PM 32.0 °F 28.7 °F 28.4 °F 87% 30.41 in 10.0 mi NE 3.5 mph - N/A   Clear
11:35 PM 32.0 °F - 28.4 °F 87% 30.41 in 9.0 mi Calm Calm - N/A   Partly Cloudy
11:55 PM 32.0 °F - 28.4 °F 87% 30.41 in 7.0 mi Calm Calm - N/A   Clear